Regional Weather Roundup
Issued by NWS Memphis, TN

Home | Current Version | Previous Version | Text Only | Print | Product List | Glossary On
Versions: 1 2 3 4 5 6 7 8 9 10 11 12 13 14 15 16 17 18 19 20 21 22 23 24 25 26 27 28 29 30 31 32 33 34 35 36 37 38 39 40 41 42 43 44 45 46 47 48 49 50
000
ASUS44 KMEG 250100
RWRMEG
MEMPHIS CWA HOURLY WEATHER ROUNDUP
NATIONAL WEATHER SERVICE MEMPHIS TN
800 PM CDT THU APR 24 2014

...WEST TENNESSEE...

CITY           SKY/WX    TMP DP  RH WIND       PRES   REMARKS
MEMPHIS INTL   TSTM      65  63  93 W3        29.75R FOG
NWS MEMPHIS      N/A     65 N/A N/A MISG        N/A
JACKSON        LGT RAIN  64  61  90 E3        29.72F
LEXINGTON      CLEAR     73  52  46 S5        29.74F
DYERSBURG      CLOUDY    70  52  52 S9G20     29.69R
UNION CITY     CLEAR     66  55  68 SE9       29.66F


...EASTERN ARKANSAS...

CITY           SKY/WX    TMP DP  RH WIND       PRES   REMARKS
JONESBORO      LGT RAIN  66  62  87 S7        29.68F
WEST MEMPHIS   LGT RAIN  64  64 100 VRB6G21   29.72F
BATESVILLE     CLOUDY    64  61  88 W6        29.67R
WALNUT RIDGE   CLOUDY    64  59  82 S9        29.65F
BLYTHEVILLE    LGT RAIN  67  62  84 SW15G26   29.71R
SEARCY         CLOUDY    68  66  93 SW9       29.70R
STUTTGART      CLOUDY    70  64  83 S14       29.71F
PINE BLUFF     TSTM      63  60  90 SW9G18    29.75R FOG
MONTICELLO     CLOUDY    69  67  93 SW6       29.77R


...NORTH MISSISSIPPI...

CITY           SKY/WX    TMP DP  RH WIND       PRES   REMARKS
TUPELO         CLOUDY    73  58  59 S7        29.77F
TUNICA         TSTM      66  64  94 SW8       29.77R
GRENADA        CLOUDY    68  61  77 S16G22    29.75S THUNDER
GREENWOOD      LGT RAIN  66  64  93 NE8       29.77F FOG
COLUMBUS       CLOUDY    73  58  59 S6        29.80S
STARKVILLE     FAIR      70  59  68 SE5       29.79F


...SOUTHEAST MISSOURI...

CITY           SKY/WX    TMP DP  RH WIND       PRES   REMARKS
WEST PLAINS    CLOUDY    64  57  78 S5        29.67R
POPLAR BLUFF   LGT RAIN  65  60  84 SE5       29.65F
CAPE GIRARDEAU LGT RAIN  68  58  70 SW10      29.67R


...NORTHWEST ALABAMA...

CITY           SKY/WX    TMP DP  RH WIND       PRES   REMARKS
MUSCLE SHOALS  PTCLDY    69  55  60 S3        29.81F


...MIDDLE TENNESSEE...

CITY           SKY/WX    TMP DP  RH WIND       PRES   REMARKS
NASHVILLE      MOCLDY    72  49  44 S9        29.80S
CLARKSVILLE    CLOUDY    72  48  42 S8        29.74F
COLUMBIA       CLEAR     72  57  60 S5        29.79F


...WESTERN KENTUCKY...

CITY           SKY/WX    TMP DP  RH WIND       PRES   REMARKS
PADUCAH        CLOUDY    75  51  43 S13G20    29.63F
FORT CAMPBELL  CLOUDY    74  47  37 S8        29.73F


...CENTRAL ARKANSAS...

CITY           SKY/WX    TMP DP  RH WIND       PRES   REMARKS
LITTLE ROCK    CLOUDY    66  61  84 W12       29.75R


SKY/WX REPORTED AS FAIR MEANS FEW OR NO CLOUDS BELOW
12 THOUSAND FEET.




USA.gov is the U.S. government's official web portal to all federal, state and local government web resources and services.